Regional Weather Roundup
Issued by NWS Albany, NY

Home | Current Version | Previous Version | Text Only | Print | Product List | Glossary On
Versions: 1 2 3 4 5 6 7 8 9 10 11 12 13 14 15 16 17 18 19 20 21 22 23 24 25 26 27 28 29 30 31 32 33 34 35 36 37 38 39 40 41 42 43 44 45 46 47 48 49 50
000
ASUS41 KALY 171610
RWRALY

NEW YORK STATE HOURLY WEATHER ROUNDUP
NATIONAL WEATHER SERVICE ALBANY NY
1200 PM EDT WED SEP 17 2014

NOTE: "FAIR" INDICATES FEW OR NO CLOUDS BELOW 12,000 FEET WITH NO
SIGNIFICANT WEATHER AND/OR NO OBSTRUCTIONS TO VISIBILITY.

NYZ032-033-038>043-046>054-057>066-NYZ062>081-171700-
EAST


CITY           SKY/WX    TMP DP  RH WIND       PRES   REMARKS
ALBANY         PTSUNNY   63  45  51 CALM      30.03F
GLENS FALLS    MOSUNNY   63  44  50 VRB3      30.01F
POUGHKEEPSIE   SUNNY     67  45  45 CALM      30.03F
NEWBURGH       SUNNY     64  46  52 CALM      30.06F
MONTGOMERY     MOSUNNY   65  45  48 CALM      30.04F
WHITE PLAINS   MOSUNNY   66  41  40 VRB3      30.04F
ISLIP          MOSUNNY   67  42  40 N5        30.02F
NEW YORK CITY  MOSUNNY   70  40  33 VRB7      30.03F
CENTRAL PARK   SUNNY     69  40  34 VRB7      30.07F
$$

NYZ005>009-017-018-044>046-055-056-171700-
CENTRAL


CITY           SKY/WX    TMP DP  RH WIND       PRES   REMARKS
FULTON         MOSUNNY   64  48  56 VRB6      30.02F
SYRACUSE       PTSUNNY   66  45  46 W6        30.02F
ROME           PTSUNNY   62  49  62 SW8       30.04F
ELMIRA         PTSUNNY   65  43  44 W8        30.03F
BINGHAMTON     SUNNY     60  46  59 VRB7      30.05F
MONTICELLO     CLOUDY    59  45  58 W7        30.08S
$$

NYZ026>034-041>043-171700-
NORTH


CITY           SKY/WX    TMP DP  RH WIND       PRES   REMARKS
WATERTOWN      CLOUDY    62  49  62 S9        30.01S
FORT DRUM      NOT AVBL
MASSENA        CLOUDY    60  50  69 SW9       29.99F
SARANAC LAKE   PTSUNNY   57  40  52 SW8G16    29.99F
PLATTSBURGH    SUNNY     64  42  44 VRB6      29.98F
$$

NYZ001>004-010>016-019>021-171700-
WEST


CITY           SKY/WX    TMP DP  RH WIND       PRES   REMARKS
NIAGARA FALLS  MOSUNNY   65  45  48 W9G20     30.00F
BUFFALO        MOSUNNY   62  47  57 SW13      30.02F
DUNKIRK        PTSUNNY   65  48  54 VRB5G16   30.03F
JAMESTOWN      MOSUNNY   57  45  62 SW6       30.04F
WELLSVILLE     MOSUNNY   60  41  49 SW9       30.05F
ROCHESTER      PTSUNNY   64  49  57 VRB3      30.02F
PENN YAN       PTSUNNY   64  44  48 NW5       30.03F
$$

             KEY
       WCI = WIND CHILL INDEX
       VSB = VISIBILITY
       HX  = HEAT INDEX
$$


USA.gov is the U.S. government's official web portal to all federal, state and local government web resources and services.